Regional Weather Roundup
Issued by NWS

Home | Current Version | Previous Version | Text Only | Print | Product List | Glossary On
Versions: 1 2 3 4 5 6 7 8 9 10 11 12 13 14 15 16 17 18 19 20 21 22 23 24 25 26 27 28 29 30 31 32 33 34 35 36 37 38 39 40 41 42 43 44 45 46 47 48 49 50
000
ASUS45 KPSR 050310
RWRAZ

ARIZONA HOURLY REGIONAL WEATHER ROUNDUP
NATIONAL WEATHER SERVICE PHOENIX AZ
800 PM MST SAT JUL 04 2015

NOTE: FAIR INDICATES FEW OR NO CLOUDS BELOW 12,000 FEET WITH NO
SIGNIFICANT WEATHER AND/OR OBSTRUCTIONS TO VISIBILITY.

AZZ001>003-036-050400-
NORTHWEST ARIZONA

CITY           SKY/WX    TMP DP  RH WIND       PRES   REMARKS
BULLHEAD CITY  MOCLDY   104  50  16 S13G18    29.68S HX 101
KINGMAN        CLOUDY    89  47  23 S5        29.94R
$$

AZZ004>008-015-016-018-050400-
NORTH CENTRAL ARIZONA

CITY           SKY/WX    TMP DP  RH WIND       PRES   REMARKS
GRAND CANYON   CLOUDY    68  56  65 SW3       30.19R
WILLIAMS       CLOUDY    66  59  77 CALM      30.29R
PRESCOTT       MOCLDY    75  58  55 SE10      30.09R
FLAGSTAFF      CLOUDY    60  58  92 SW3       30.24S
PAYSON         CLOUDY    70  54  56 VRB7      30.14S
PAGE           MOCLDY    87  49  26 W3        29.96R
$$

AZZ009>014-017-050400-
NORTHEAST ARIZONA

CITY           SKY/WX    TMP DP  RH WIND       PRES   REMARKS
WINSLOW        LGT RAIN  67  62  84 S13       30.12F
SAINT JOHNS    MOCLDY    66  60  81 CALM      30.16S
WINDOW ROCK    LGT RAIN  62  56  80 CALM      30.23F
SHOW LOW       CLOUDY    63  57  82 CALM      30.22R
$$

AZZ023-050400-
GREATER PHOENIX AREA

CITY           SKY/WX    TMP DP  RH WIND       PRES   REMARKS
PHOENIX        MOCLDY   101  53  20 W13       29.75R
BUCKEYE        PTCLDY    91  57  31 S5        29.76S
LUKE AFB       PTCLDY    97  57  26 SW9       29.75R
DEER VALLEY    PTCLDY    97  53  22 W8        29.78R
SCOTTSDALE     PTCLDY    98  53  22 SW8       29.80R
MESA-FALCON    MOCLDY    99  54  22 W9        29.78R
MESA-GATEWAY   MOCLDY    99  55  23 NW10      29.80R
CHANDLER       MOCLDY   100  55  22 W12       29.77R
$$

AZZ027-028-050400-
SOUTHWEST MARICOPA COUNTY AND PINAL COUNTY

CITY           SKY/WX    TMP DP  RH WIND       PRES   REMARKS
CASA GRANDE    CLOUDY    97  55  24 CALM      29.80R
GILA BEND      FAIR      98  54  23 W8        29.74R
$$

AZZ503-504-507>509-050400-
SOUTHEAST ARIZONA

CITY           SKY/WX    TMP DP  RH WIND       PRES   REMARKS
TUCSON         CLOUDY    90  55  30 SW6       29.93R
DAVIS-MONTHAN  CLOUDY    89  54  29 W5        29.91R
RYAN FIELD     CLEAR     90  61  37 S5        29.91R
NOGALES        PTCLDY    80  56  43 E3        30.02R
SIERRA VISTA   CLOUDY    79  53  40 W9        30.08R
DOUGLAS        MOCLDY    77  62  59 NW7       30.02R
SAFFORD        MOCLDY    88  59  37 NE8       29.92R
$$

AZZ020-021-025-026-031-050400-
SOUTHWEST ARIZONA

CITY           SKY/WX    TMP DP  RH WIND       PRES   REMARKS
YUMA           CLEAR     99  58  25 S14       29.69R
$$

CAZ031-033-041-043-047-048-061-050400-
SOUTHERN CALIFORNIA

CITY           SKY/WX    TMP DP  RH WIND       PRES   REMARKS
DOWNTOWN L.A.  PTCLDY    66  59  78 CALM      29.88R
L.A. AIRPORT   CLOUDY    64  59  83 W13       29.90R
SAN DIEGO      MOCLDY    67  59  75 NW7       29.92R
BURBANK        CLEAR     70  58  65 S8        29.88R
ONTARIO        PTCLDY    74  58  57 W12       29.87R
RIVERSIDE      CLEAR     74  59  59 W10       29.87R
PALM SPRINGS   CLEAR     98  56  24 NW17G25   29.69R
EL CENTRO NAS  CLEAR     97  61  30 SE15      29.66R
IMPERIAL       CLEAR     98  60  28 SE15      29.63R
BLYTHE         CLEAR    100  57  23 S14       29.68R
NEEDLES        PTCLDY   105  50  15 S12       29.70R HX 102
$$

NVZ020-UTZ003-050400-
SOUTHERN NEVADA-UTAH

CITY           SKY/WX    TMP DP  RH WIND       PRES   REMARKS
LAS VEGAS      PTCLDY    99  48  17 E6        29.76R
SALT LAKE CITY LGT RAIN  82  58  43 S9        29.92R
$$

NMZ009-TXZ055-050400-
NEW MEXICO-WEST TEXAS

CITY           SKY/WX    TMP DP  RH WIND       PRES   REMARKS
ALBUQUERQUE    CLOUDY    79  53  40 W10       30.10R
EL PASO        TSTM      74  65  73 E13       30.02R
$$


........................KEY........................
SKY/WX - SKY CONDITION/WEATHER
TMP    - TEMPERATURE IN FAHRENHEIT
DP     - DEW POINT IN FAHRENHEIT
RH     - RELATIVE HUMIDITY IN PERCENT
WIND   - DIRECTION AND SPEED IN MILES PER HOUR (MPH)
VRB    - VARIABLE WIND DIRECTION
PRES   - MEAN SEA LEVEL PRESSURE IN INCHES OF MERCURY
         F - FALLING PRESSURE   R - RISING PRESSURE
         S - STEADY PRESSURE
VSB    - VISIBILITY IN MILES
HX     - HEAT INDEX IN FAHRENHEIT
WCI    - WIND CHILL INDEX IN FAHRENHEIT
TC     - TEMPERATURE IN CELSIUS WHICH IS ALSO KNOWN AS
         TEMPERATURE IN CENTIGRADE
AFB    - AIR FORCE BASE
         LUKE AFB IS LUKE AIR FORCE BASE
         DAVIS-MONTHAN IS DAVIS-MONTHAN AIR FORCE BASE
NAS    - NAVAL AIR STATION
         EL CENTRO NAS IS EL CENTRO NAVAL AIR STATION
N/A    - NOT AVAILABLE




USA.gov is the U.S. government's official web portal to all federal, state and local government web resources and services.